User: anonymous   Login
Location: Castillon
(43.0896°N, 0.2156°E)
Time: 05:18:48
(UTC+00:00)
Language:

CARTOSAT-1 - Orbit

View from above orbital plane
View from above orbital plane
View from above satellite
View from above satellite

Ground track
Ground track

The orbit data is extracted from the following two-line orbital elements,

1 28649U 05017A   21260.60043777  .00000088  00000-0  16865-4 0  9993
2 28649  97.7596 324.2529 0002430  62.0374 298.1086 14.83819721886293
Epoch (UTC): 17 September 2021 14:24:37
Eccentricity: 0.0002430
inclination: 97.7596°
perigee height: 615 km
apogee height: 619 km
right ascension of ascending node: 324.2529°
argument of perigee: 62.0374°
revolutions per day: 14.83819721
mean anomaly at epoch: 298.1086°
orbit number at epoch: 88629

The dashed part of the orbit path shows where the satellite is in the earth's shadow,  

DLR